owner,sensor,date,latitude,longitude,sea_water_turbidity,qcFlag 
SCCF RECON,ioos:station:SCCF:11:1,2015-01-01T00:00:00Z,26.4679,-82.0631,4.58,1111122 
SCCF RECON,ioos:station:SCCF:11:1,2015-01-01T01:00:00Z,26.4679,-82.0631,5.85,1111122 
SCCF RECON,ioos:station:SCCF:11:1,2015-01-01T02:00:00Z,26.4679,-82.0631,7.86,1111122 
SCCF RECON,ioos:station:SCCF:11:1,2015-01-01T03:00:00Z,26.4679,-82.0631,6.93,1111122 
SCCF RECON,ioos:station:SCCF:11:1,2015-01-01T04:00:00Z,26.4679,-82.0631,7.14,1111122 
SCCF RECON,ioos:station:SCCF:11:1,2015-01-01T05:00:00Z,26.4679,-82.0631,5.25,1111122 
SCCF RECON,ioos:station:SCCF:11:1,2015-01-01T06:00:00Z,26.4679,-82.0631,5.77,1111122 
SCCF RECON,ioos:station:SCCF:11:1,2015-01-01T07:00:00Z,26.4679,-82.0631,5.37,1111122 
SCCF RECON,ioos:station:SCCF:11:1,2015-01-01T08:00:00Z,26.4679,-82.0631,5.59,1111122 
SCCF RECON,ioos:station:SCCF:11:1,2015-01-01T09:00:00Z,26.4679,-82.0631,5.35,1111122 
SCCF RECON,ioos:station:SCCF:11:1,2015-01-01T10:00:00Z,26.4679,-82.0631,5.68,1111122 
SCCF RECON,ioos:station:SCCF:11:1,2015-01-01T11:00:00Z,26.4679,-82.0631,6.57,1111122 
SCCF RECON,ioos:station:SCCF:11:1,2015-01-01T12:00:00Z,26.4679,-82.0631,8.45,1111122 
SCCF RECON,ioos:station:SCCF:11:1,2015-01-01T13:00:00Z,26.4679,-82.0631,7.68,1111122 
SCCF RECON,ioos:station:SCCF:11:1,2015-01-01T14:00:00Z,26.4679,-82.0631,6.95,1111122 
SCCF RECON,ioos:station:SCCF:11:1,2015-01-01T15:00:00Z,26.4679,-82.0631,6.9,1111122 
SCCF RECON,ioos:station:SCCF:11:1,2015-01-01T16:00:00Z,26.4679,-82.0631,6.6,1111122 
SCCF RECON,ioos:station:SCCF:11:1,2015-01-01T17:00:00Z,26.4679,-82.0631,6.06,1111122 
SCCF RECON,ioos:station:SCCF:11:1,2015-01-01T18:00:00Z,26.4679,-82.0631,6.23,1111122 
SCCF RECON,ioos:station:SCCF:11:1,2015-01-01T19:00:00Z,26.4679,-82.0631,6.08,1111122 
SCCF RECON,ioos:station:SCCF:11:1,2015-01-01T20:00:00Z,26.4679,-82.0631,4.35,1111122 
SCCF RECON,ioos:station:SCCF:11:1,2015-01-01T21:00:00Z,26.4679,-82.0631,4.33,1111122 
SCCF RECON,ioos:station:SCCF:11:1,2015-01-01T22:00:00Z,26.4679,-82.0631,5.31,1111122 
SCCF RECON,ioos:station:SCCF:11:1,2015-01-01T23:00:00Z,26.4679,-82.0631,5.93,1111122 
SCCF RECON,ioos:station:SCCF:11:1,2015-01-02T00:00:00Z,26.4679,-82.0631,4.98,1111122 
SCCF RECON,ioos:station:SCCF:11:1,2015-01-02T01:00:00Z,26.4679,-82.0631,4.7,1111122 
SCCF RECON,ioos:station:SCCF:11:1,2015-01-02T02:00:00Z,26.4679,-82.0631,4.44,1111122 
SCCF RECON,ioos:station:SCCF:11:1,2015-01-02T03:00:00Z,26.4679,-82.0631,3.97,1111122 
SCCF RECON,ioos:station:SCCF:11:1,2015-01-02T04:00:00Z,26.4679,-82.0631,5.38,1111122 
SCCF RECON,ioos:station:SCCF:11:1,2015-01-02T05:00:00Z,26.4679,-82.0631,4.6,1111122 
SCCF RECON,ioos:station:SCCF:11:1,2015-01-02T06:00:00Z,26.4679,-82.0631,5.38,1111122 
SCCF RECON,ioos:station:SCCF:11:1,2015-01-02T07:00:00Z,26.4679,-82.0631,6.06,1111122 
SCCF RECON,ioos:station:SCCF:11:1,2015-01-02T08:00:00Z,26.4679,-82.0631,5.27,1111122 
SCCF RECON,ioos:station:SCCF:11:1,2015-01-02T09:00:00Z,26.4679,-82.0631,5.61,1111122 
SCCF RECON,ioos:station:SCCF:11:1,2015-01-02T10:00:00Z,26.4679,-82.0631,6.11,1111122 
SCCF RECON,ioos:station:SCCF:11:1,2015-01-02T11:00:00Z,26.4679,-82.0631,4.82,1111122 
SCCF RECON,ioos:station:SCCF:11:1,2015-01-02T12:00:00Z,26.4679,-82.0631,5.76,1111122 
SCCF RECON,ioos:station:SCCF:11:1,2015-01-02T13:00:00Z,26.4679,-82.0631,7.84,1111122 
SCCF RECON,ioos:station:SCCF:11:1,2015-01-02T14:00:00Z,26.4679,-82.0631,6.41,1111122 
SCCF RECON,ioos:station:SCCF:11:1,2015-01-02T15:00:00Z,26.4679,-82.0631,6.59,1111122 
SCCF RECON,ioos:station:SCCF:11:1,2015-01-02T16:00:00Z,26.4679,-82.0631,7.49,1111122 
SCCF RECON,ioos:station:SCCF:11:1,2015-01-02T17:00:00Z,26.4679,-82.0631,7.53,1111122 
SCCF RECON,ioos:station:SCCF:11:1,2015-01-02T18:00:00Z,26.4679,-82.0631,7.59,1111122 
SCCF RECON,ioos:station:SCCF:11:1,2015-01-02T19:00:00Z,26.4679,-82.0631,6.19,1111122 
SCCF RECON,ioos:station:SCCF:11:1,2015-01-02T20:00:00Z,26.4679,-82.0631,5.09,1111122 
SCCF RECON,ioos:station:SCCF:11:1,2015-01-02T21:00:00Z,26.4679,-82.0631,5.11,1111122 
SCCF RECON,ioos:station:SCCF:11:1,2015-01-02T22:00:00Z,26.4679,-82.0631,5.04,1111122 
SCCF RECON,ioos:station:SCCF:11:1,2015-01-02T23:00:00Z,26.4679,-82.0631,5.09,1111122 
SCCF RECON,ioos:station:SCCF:11:1,2015-01-03T00:00:00Z,26.4679,-82.0631,4.87,1111122 
SCCF RECON,ioos:station:SCCF:11:1,2015-01-03T01:00:00Z,26.4679,-82.0631,4.13,1111122 
SCCF RECON,ioos:station:SCCF:11:1,2015-01-03T02:00:00Z,26.4679,-82.0631,4.83,1111122 
SCCF RECON,ioos:station:SCCF:11:1,2015-01-03T03:00:00Z,26.4679,-82.0631,4.99,1111122 
SCCF RECON,ioos:station:SCCF:11:1,2015-01-03T04:00:00Z,26.4679,-82.0631,5.46,1111122 
SCCF RECON,ioos:station:SCCF:11:1,2015-01-03T05:00:00Z,26.4679,-82.0631,6.39,1111122 
SCCF RECON,ioos:station:SCCF:11:1,2015-01-03T06:00:00Z,26.4679,-82.0631,4.69,1111122 
SCCF RECON,ioos:station:SCCF:11:1,2015-01-03T07:00:00Z,26.4679,-82.0631,5.51,1111122 
SCCF RECON,ioos:station:SCCF:11:1,2015-01-03T08:00:00Z,26.4679,-82.0631,5.46,1111122 
SCCF RECON,ioos:station:SCCF:11:1,2015-01-03T09:00:00Z,26.4679,-82.0631,5.57,1111122 
SCCF RECON,ioos:station:SCCF:11:1,2015-01-03T10:00:00Z,26.4679,-82.0631,5.73,1111122 
SCCF RECON,ioos:station:SCCF:11:1,2015-01-03T11:00:00Z,26.4679,-82.0631,5.88,1111122 
SCCF RECON,ioos:station:SCCF:11:1,2015-01-03T12:00:00Z,26.4679,-82.0631,5.41,1111122 
SCCF RECON,ioos:station:SCCF:11:1,2015-01-03T13:00:00Z,26.4679,-82.0631,12.12,1111122 
SCCF RECON,ioos:station:SCCF:11:1,2015-01-03T14:00:00Z,26.4679,-82.0631,8.92,1111122 
SCCF RECON,ioos:station:SCCF:11:1,2015-01-03T15:00:00Z,26.4679,-82.0631,8.16,1111122 
SCCF RECON,ioos:station:SCCF:11:1,2015-01-03T16:00:00Z,26.4679,-82.0631,8.84,1111122 
SCCF RECON,ioos:station:SCCF:11:1,2015-01-03T17:00:00Z,26.4679,-82.0631,11.72,1111122 
SCCF RECON,ioos:station:SCCF:11:1,2015-01-03T18:00:00Z,26.4679,-82.0631,12.58,1111122 
SCCF RECON,ioos:station:SCCF:11:1,2015-01-03T19:00:00Z,26.4679,-82.0631,9.78,1111122 
SCCF RECON,ioos:station:SCCF:11:1,2015-01-03T20:00:00Z,26.4679,-82.0631,8.23,1111122 
SCCF RECON,ioos:station:SCCF:11:1,2015-01-03T21:00:00Z,26.4679,-82.0631,7.53,1111122 
SCCF RECON,ioos:station:SCCF:11:1,2015-01-03T22:00:00Z,26.4679,-82.0631,8.62,1111122 
SCCF RECON,ioos:station:SCCF:11:1,2015-01-03T23:00:00Z,26.4679,-82.0631,6.66,1111122 
SCCF RECON,ioos:station:SCCF:11:1,2015-01-04T00:00:00Z,26.4679,-82.0631,7.2,1111122 
SCCF RECON,ioos:station:SCCF:11:1,2015-01-04T01:00:00Z,26.4679,-82.0631,7.59,1111122 
SCCF RECON,ioos:station:SCCF:11:1,2015-01-04T02:00:00Z,26.4679,-82.0631,7.17,1111122 
SCCF RECON,ioos:station:SCCF:11:1,2015-01-04T03:00:00Z,26.4679,-82.0631,6.48,1111122 
SCCF RECON,ioos:station:SCCF:11:1,2015-01-04T04:00:00Z,26.4679,-82.0631,6.31,1111122 
SCCF RECON,ioos:station:SCCF:11:1,2015-01-04T05:00:00Z,26.4679,-82.0631,6.15,1111122 
SCCF RECON,ioos:station:SCCF:11:1,2015-01-04T06:00:00Z,26.4679,-82.0631,5.03,1111122 
SCCF RECON,ioos:station:SCCF:11:1,2015-01-04T07:00:00Z,26.4679,-82.0631,4.46,1111122 
SCCF RECON,ioos:station:SCCF:11:1,2015-01-04T08:00:00Z,26.4679,-82.0631,5.19,1111122 
SCCF RECON,ioos:station:SCCF:11:1,2015-01-04T09:00:00Z,26.4679,-82.0631,5.02,1111122 
SCCF RECON,ioos:station:SCCF:11:1,2015-01-04T10:00:00Z,26.4679,-82.0631,5.09,1111122 
SCCF RECON,ioos:station:SCCF:11:1,2015-01-04T11:00:00Z,26.4679,-82.0631,5.21,1111122 
SCCF RECON,ioos:station:SCCF:11:1,2015-01-04T12:00:00Z,26.4679,-82.0631,5.33,1111122 
SCCF RECON,ioos:station:SCCF:11:1,2015-01-04T13:00:00Z,26.4679,-82.0631,4.92,1111122 
SCCF RECON,ioos:station:SCCF:11:1,2015-01-04T14:00:00Z,26.4679,-82.0631,8.98,1111122 
SCCF RECON,ioos:station:SCCF:11:1,2015-01-04T15:00:00Z,26.4679,-82.0631,6.86,1111122 
SCCF RECON,ioos:station:SCCF:11:1,2015-01-04T16:00:00Z,26.4679,-82.0631,7.57,1111122 
SCCF RECON,ioos:station:SCCF:11:1,2015-01-04T17:00:00Z,26.4679,-82.0631,7.92,1111122 
SCCF RECON,ioos:station:SCCF:11:1,2015-01-04T18:00:00Z,26.4679,-82.0631,8.86,1111122 
SCCF RECON,ioos:station:SCCF:11:1,2015-01-04T19:00:00Z,26.4679,-82.0631,7.45,1111122 
SCCF RECON,ioos:station:SCCF:11:1,2015-01-04T20:00:00Z,26.4679,-82.0631,6.62,1111122 
SCCF RECON,ioos:station:SCCF:11:1,2015-01-04T21:00:00Z,26.4679,-82.0631,4.6,1111122 
SCCF RECON,ioos:station:SCCF:11:1,2015-01-04T22:00:00Z,26.4679,-82.0631,4.86,1111122 
SCCF RECON,ioos:station:SCCF:11:1,2015-01-04T23:00:00Z,26.4679,-82.0631,4.8,1111122 
SCCF RECON,ioos:station:SCCF:11:1,2015-01-05T00:00:00Z,26.4679,-82.0631,4.41,1111122 
SCCF RECON,ioos:station:SCCF:11:1,2015-01-05T01:00:00Z,26.4679,-82.0631,6.26,1111122 
SCCF RECON,ioos:station:SCCF:11:1,2015-01-05T02:00:00Z,26.4679,-82.0631,3.43,1111122 
SCCF RECON,ioos:station:SCCF:11:1,2015-01-05T03:00:00Z,26.4679,-82.0631,5.89,1111122 
SCCF RECON,ioos:station:SCCF:11:1,2015-01-05T04:00:00Z,26.4679,-82.0631,4.93,1111122 
SCCF RECON,ioos:station:SCCF:11:1,2015-01-05T05:00:00Z,26.4679,-82.0631,4.15,1111122 
SCCF RECON,ioos:station:SCCF:11:1,2015-01-05T06:00:00Z,26.4679,-82.0631,3.8,1111122 
SCCF RECON,ioos:station:SCCF:11:1,2015-01-05T07:00:00Z,26.4679,-82.0631,3.79,1111122 
SCCF RECON,ioos:station:SCCF:11:1,2015-01-05T08:00:00Z,26.4679,-82.0631,4.48,1111122 
SCCF RECON,ioos:station:SCCF:11:1,2015-01-05T09:00:00Z,26.4679,-82.0631,4.7,1111122 
SCCF RECON,ioos:station:SCCF:11:1,2015-01-05T10:00:00Z,26.4679,-82.0631,4.56,1111122 
SCCF RECON,ioos:station:SCCF:11:1,2015-01-05T11:00:00Z,26.4679,-82.0631,4.82,1111122 
SCCF RECON,ioos:station:SCCF:11:1,2015-01-05T12:00:00Z,26.4679,-82.0631,5.02,1111122 
SCCF RECON,ioos:station:SCCF:11:1,2015-01-05T13:00:00Z,26.4679,-82.0631,4.56,1111122 
SCCF RECON,ioos:station:SCCF:11:1,2015-01-05T14:00:00Z,26.4679,-82.0631,5.28,1111122 
SCCF RECON,ioos:station:SCCF:11:1,2015-01-05T15:00:00Z,26.4679,-82.0631,6.71,1111122 
SCCF RECON,ioos:station:SCCF:11:1,2015-01-05T16:00:00Z,26.4679,-82.0631,6.56,1111122 
SCCF RECON,ioos:station:SCCF:11:1,2015-01-05T17:00:00Z,26.4679,-82.0631,6.03,1111122 
SCCF RECON,ioos:station:SCCF:11:1,2015-01-05T18:00:00Z,26.4679,-82.0631,6.76,1111122 
SCCF RECON,ioos:station:SCCF:11:1,2015-01-05T19:00:00Z,26.4679,-82.0631,6.0,1111122 
SCCF RECON,ioos:station:SCCF:11:1,2015-01-05T20:00:00Z,26.4679,-82.0631,5.84,1111122 
SCCF RECON,ioos:station:SCCF:11:1,2015-01-05T21:00:00Z,26.4679,-82.0631,5.09,1111122 
SCCF RECON,ioos:station:SCCF:11:1,2015-01-05T22:00:00Z,26.4679,-82.0631,5.1,1111122 
SCCF RECON,ioos:station:SCCF:11:1,2015-01-05T23:00:00Z,26.4679,-82.0631,4.88,1111122 
SCCF RECON,ioos:station:SCCF:11:1,2015-01-06T00:00:00Z,26.4679,-82.0631,5.08,1111122 
SCCF RECON,ioos:station:SCCF:11:1,2015-01-06T01:00:00Z,26.4679,-82.0631,5.67,1111122 
SCCF RECON,ioos:station:SCCF:11:1,2015-01-06T02:00:00Z,26.4679,-82.0631,5.77,1111122 
SCCF RECON,ioos:station:SCCF:11:1,2015-01-06T03:00:00Z,26.4679,-82.0631,6.59,1111122 
SCCF RECON,ioos:station:SCCF:11:1,2015-01-06T04:00:00Z,26.4679,-82.0631,7.67,1111122 
SCCF RECON,ioos:station:SCCF:11:1,2015-01-06T05:00:00Z,26.4679,-82.0631,9.45,1111122 
SCCF RECON,ioos:station:SCCF:11:1,2015-01-06T06:00:00Z,26.4679,-82.0631,8.06,1111122 
SCCF RECON,ioos:station:SCCF:11:1,2015-01-06T07:00:00Z,26.4679,-82.0631,6.16,1111122 
SCCF RECON,ioos:station:SCCF:11:1,2015-01-06T08:00:00Z,26.4679,-82.0631,6.32,1111122 
SCCF RECON,ioos:station:SCCF:11:1,2015-01-06T09:00:00Z,26.4679,-82.0631,5.83,1111122 
SCCF RECON,ioos:station:SCCF:11:1,2015-01-06T10:00:00Z,26.4679,-82.0631,6.37,1111122 
SCCF RECON,ioos:station:SCCF:11:1,2015-01-06T11:00:00Z,26.4679,-82.0631,5.99,1111122 
SCCF RECON,ioos:station:SCCF:11:1,2015-01-06T12:00:00Z,26.4679,-82.0631,6.04,1111122 
SCCF RECON,ioos:station:SCCF:11:1,2015-01-06T13:00:00Z,26.4679,-82.0631,6.23,1111122 
SCCF RECON,ioos:station:SCCF:11:1,2015-01-06T14:00:00Z,26.4679,-82.0631,7.02,1111122 
SCCF RECON,ioos:station:SCCF:11:1,2015-01-06T15:00:00Z,26.4679,-82.0631,8.1,1111122 
SCCF RECON,ioos:station:SCCF:11:1,2015-01-06T16:00:00Z,26.4679,-82.0631,7.34,1111122 
SCCF RECON,ioos:station:SCCF:11:1,2015-01-06T17:00:00Z,26.4679,-82.0631,7.82,1111122 
SCCF RECON,ioos:station:SCCF:11:1,2015-01-06T18:00:00Z,26.4679,-82.0631,6.97,1111122 
SCCF RECON,ioos:station:SCCF:11:1,2015-01-06T19:00:00Z,26.4679,-82.0631,7.71,1111122 
SCCF RECON,ioos:station:SCCF:11:1,2015-01-06T20:00:00Z,26.4679,-82.0631,8.24,1111122 
SCCF RECON,ioos:station:SCCF:11:1,2015-01-06T21:00:00Z,26.4679,-82.0631,5.44,1111122 
SCCF RECON,ioos:station:SCCF:11:1,2015-01-06T22:00:00Z,26.4679,-82.0631,5.9,1111122 
SCCF RECON,ioos:station:SCCF:11:1,2015-01-06T23:00:00Z,26.4679,-82.0631,5.77,1111122 
SCCF RECON,ioos:station:SCCF:11:1,2015-01-07T00:00:00Z,26.4679,-82.0631,9.83,1111122 
SCCF RECON,ioos:station:SCCF:11:1,2015-01-07T01:00:00Z,26.4679,-82.0631,7.35,1111122 
SCCF RECON,ioos:station:SCCF:11:1,2015-01-07T02:00:00Z,26.4679,-82.0631,7.18,1111122 
SCCF RECON,ioos:station:SCCF:11:1,2015-01-07T03:00:00Z,26.4679,-82.0631,7.44,1111122 
SCCF RECON,ioos:station:SCCF:11:1,2015-01-07T04:00:00Z,26.4679,-82.0631,7.81,1111122 
SCCF RECON,ioos:station:SCCF:11:1,2015-01-07T05:00:00Z,26.4679,-82.0631,7.41,1111122 
SCCF RECON,ioos:station:SCCF:11:1,2015-01-07T06:00:00Z,26.4679,-82.0631,6.72,1111122 
SCCF RECON,ioos:station:SCCF:11:1,2015-01-07T07:00:00Z,26.4679,-82.0631,8.2,1111122 
SCCF RECON,ioos:station:SCCF:11:1,2015-01-07T08:00:00Z,26.4679,-82.0631,6.63,1111122 
SCCF RECON,ioos:station:SCCF:11:1,2015-01-07T09:00:00Z,26.4679,-82.0631,6.43,1111122 
SCCF RECON,ioos:station:SCCF:11:1,2015-01-07T10:00:00Z,26.4679,-82.0631,6.04,1111122 
SCCF RECON,ioos:station:SCCF:11:1,2015-01-07T11:00:00Z,26.4679,-82.0631,5.79,1111122 
SCCF RECON,ioos:station:SCCF:11:1,2015-01-07T12:00:00Z,26.4679,-82.0631,5.92,1111122 
SCCF RECON,ioos:station:SCCF:11:1,2015-01-07T13:00:00Z,26.4679,-82.0631,6.55,1111122 
SCCF RECON,ioos:station:SCCF:11:1,2015-01-07T14:00:00Z,26.4679,-82.0631,6.9,1111122 
SCCF RECON,ioos:station:SCCF:11:1,2015-01-07T15:00:00Z,26.4679,-82.0631,10.06,1111122 
SCCF RECON,ioos:station:SCCF:11:1,2015-01-07T16:00:00Z,26.4679,-82.0631,8.59,1111122 
SCCF RECON,ioos:station:SCCF:11:1,2015-01-07T17:00:00Z,26.4679,-82.0631,8.15,1111122 
SCCF RECON,ioos:station:SCCF:11:1,2015-01-07T18:00:00Z,26.4679,-82.0631,7.53,1111122 
SCCF RECON,ioos:station:SCCF:11:1,2015-01-07T19:00:00Z,26.4679,-82.0631,7.79,1111122 
SCCF RECON,ioos:station:SCCF:11:1,2015-01-07T20:00:00Z,26.4679,-82.0631,7.73,1111122 
SCCF RECON,ioos:station:SCCF:11:1,2015-01-07T21:00:00Z,26.4679,-82.0631,7.56,1111122 
SCCF RECON,ioos:station:SCCF:11:1,2015-01-07T22:00:00Z,26.4679,-82.0631,6.87,1111122 
SCCF RECON,ioos:station:SCCF:11:1,2015-01-07T23:00:00Z,26.4679,-82.0631,6.7,1111122 
SCCF RECON,ioos:station:SCCF:11:1,2015-01-08T00:00:00Z,26.4679,-82.0631,6.64,1111122 
SCCF RECON,ioos:station:SCCF:11:1,2015-01-08T01:00:00Z,26.4679,-82.0631,6.1,1111122 
SCCF RECON,ioos:station:SCCF:11:1,2015-01-08T02:00:00Z,26.4679,-82.0631,8.03,1111122 
SCCF RECON,ioos:station:SCCF:11:1,2015-01-08T03:00:00Z,26.4679,-82.0631,11.83,1111122 
SCCF RECON,ioos:station:SCCF:11:1,2015-01-08T04:00:00Z,26.4679,-82.0631,9.82,1111122 
SCCF RECON,ioos:station:SCCF:11:1,2015-01-08T05:00:00Z,26.4679,-82.0631,9.2,1111122 
SCCF RECON,ioos:station:SCCF:11:1,2015-01-08T06:00:00Z,26.4679,-82.0631,8.97,1111122 
SCCF RECON,ioos:station:SCCF:11:1,2015-01-08T07:00:00Z,26.4679,-82.0631,9.66,1111122 
SCCF RECON,ioos:station:SCCF:11:1,2015-01-08T08:00:00Z,26.4679,-82.0631,11.21,1111122 
SCCF RECON,ioos:station:SCCF:11:1,2015-01-08T09:00:00Z,26.4679,-82.0631,10.8,1111122 
SCCF RECON,ioos:station:SCCF:11:1,2015-01-08T10:00:00Z,26.4679,-82.0631,10.33,1111122 
SCCF RECON,ioos:station:SCCF:11:1,2015-01-08T11:00:00Z,26.4679,-82.0631,10.79,1111122 
SCCF RECON,ioos:station:SCCF:11:1,2015-01-08T12:00:00Z,26.4679,-82.0631,10.89,1111122 
SCCF RECON,ioos:station:SCCF:11:1,2015-01-08T13:00:00Z,26.4679,-82.0631,10.88,1111122 
SCCF RECON,ioos:station:SCCF:11:1,2015-01-08T14:00:00Z,26.4679,-82.0631,11.87,1111122 
SCCF RECON,ioos:station:SCCF:11:1,2015-01-08T15:00:00Z,26.4679,-82.0631,12.03,1111122 
SCCF RECON,ioos:station:SCCF:11:1,2015-01-08T16:00:00Z,26.4679,-82.0631,24.37,1111122 
SCCF RECON,ioos:station:SCCF:11:1,2015-01-08T17:00:00Z,26.4679,-82.0631,30.03,1111122 
SCCF RECON,ioos:station:SCCF:11:1,2015-01-08T18:00:00Z,26.4679,-82.0631,27.04,1111122 
SCCF RECON,ioos:station:SCCF:11:1,2015-01-08T19:00:00Z,26.4679,-82.0631,16.4,1111122 
SCCF RECON,ioos:station:SCCF:11:1,2015-01-08T20:00:00Z,26.4679,-82.0631,12.76,1111122 
SCCF RECON,ioos:station:SCCF:11:1,2015-01-08T21:00:00Z,26.4679,-82.0631,12.08,1111122 
SCCF RECON,ioos:station:SCCF:11:1,2015-01-08T22:00:00Z,26.4679,-82.0631,12.44,1111122 
SCCF RECON,ioos:station:SCCF:11:1,2015-01-08T23:00:00Z,26.4679,-82.0631,10.43,1111122 
SCCF RECON,ioos:station:SCCF:11:1,2015-01-09T00:00:00Z,26.4679,-82.0631,11.27,1111122 
SCCF RECON,ioos:station:SCCF:11:1,2015-01-09T01:00:00Z,26.4679,-82.0631,8.46,1111122 
SCCF RECON,ioos:station:SCCF:11:1,2015-01-09T02:00:00Z,26.4679,-82.0631,10.38,1111122 
SCCF RECON,ioos:station:SCCF:11:1,2015-01-09T03:00:00Z,26.4679,-82.0631,8.5,1111122 
SCCF RECON,ioos:station:SCCF:11:1,2015-01-09T04:00:00Z,26.4679,-82.0631,7.77,1111122 
SCCF RECON,ioos:station:SCCF:11:1,2015-01-09T05:00:00Z,26.4679,-82.0631,8.16,1111122 
SCCF RECON,ioos:station:SCCF:11:1,2015-01-09T06:00:00Z,26.4679,-82.0631,7.42,1111122 
SCCF RECON,ioos:station:SCCF:11:1,2015-01-09T07:00:00Z,26.4679,-82.0631,9.81,1111122 
SCCF RECON,ioos:station:SCCF:11:1,2015-01-09T08:00:00Z,26.4679,-82.0631,9.04,1111122 
SCCF RECON,ioos:station:SCCF:11:1,2015-01-09T09:00:00Z,26.4679,-82.0631,7.01,1111122 
SCCF RECON,ioos:station:SCCF:11:1,2015-01-09T10:00:00Z,26.4679,-82.0631,7.19,1111122 
SCCF RECON,ioos:station:SCCF:11:1,2015-01-09T11:00:00Z,26.4679,-82.0631,7.06,1111122 
SCCF RECON,ioos:station:SCCF:11:1,2015-01-09T12:00:00Z,26.4679,-82.0631,6.62,1111122 
SCCF RECON,ioos:station:SCCF:11:1,2015-01-09T13:00:00Z,26.4679,-82.0631,6.88,1111122 
SCCF RECON,ioos:station:SCCF:11:1,2015-01-09T14:00:00Z,26.4679,-82.0631,6.23,1111122 
SCCF RECON,ioos:station:SCCF:11:1,2015-01-09T15:00:00Z,26.4679,-82.0631,5.32,1111122 
SCCF RECON,ioos:station:SCCF:11:1,2015-01-09T16:00:00Z,26.4679,-82.0631,6.27,1111122 
SCCF RECON,ioos:station:SCCF:11:1,2015-01-09T17:00:00Z,26.4679,-82.0631,6.58,1111122 
SCCF RECON,ioos:station:SCCF:11:1,2015-01-09T18:00:00Z,26.4679,-82.0631,6.05,1111122 
SCCF RECON,ioos:station:SCCF:11:1,2015-01-09T19:00:00Z,26.4679,-82.0631,11.52,1111122 
SCCF RECON,ioos:station:SCCF:11:1,2015-01-09T20:00:00Z,26.4679,-82.0631,4.8,1111122 
SCCF RECON,ioos:station:SCCF:11:1,2015-01-09T21:00:00Z,26.4679,-82.0631,4.73,1111122 
SCCF RECON,ioos:station:SCCF:11:1,2015-01-09T22:00:00Z,26.4679,-82.0631,5.34,1111122 
SCCF RECON,ioos:station:SCCF:11:1,2015-01-09T23:00:00Z,26.4679,-82.0631,5.77,1111122 
SCCF RECON,ioos:station:SCCF:11:1,2015-01-10T00:00:00Z,26.4679,-82.0631,5.88,1111122 
SCCF RECON,ioos:station:SCCF:11:1,2015-01-10T01:00:00Z,26.4679,-82.0631,5.05,1111122 
SCCF RECON,ioos:station:SCCF:11:1,2015-01-10T02:00:00Z,26.4679,-82.0631,5.42,1111122 
SCCF RECON,ioos:station:SCCF:11:1,2015-01-10T03:00:00Z,26.4679,-82.0631,5.39,1111122 
SCCF RECON,ioos:station:SCCF:11:1,2015-01-10T04:00:00Z,26.4679,-82.0631,7.59,1111122 
SCCF RECON,ioos:station:SCCF:11:1,2015-01-10T05:00:00Z,26.4679,-82.0631,6.05,1111122 
SCCF RECON,ioos:station:SCCF:11:1,2015-01-10T06:00:00Z,26.4679,-82.0631,6.28,1111122 
SCCF RECON,ioos:station:SCCF:11:1,2015-01-10T07:00:00Z,26.4679,-82.0631,7.34,1111122 
SCCF RECON,ioos:station:SCCF:11:1,2015-01-10T08:00:00Z,26.4679,-82.0631,6.45,1111122 
SCCF RECON,ioos:station:SCCF:11:1,2015-01-10T09:00:00Z,26.4679,-82.0631,6.43,1111122 
SCCF RECON,ioos:station:SCCF:11:1,2015-01-10T10:00:00Z,26.4679,-82.0631,6.53,1111122 
SCCF RECON,ioos:station:SCCF:11:1,2015-01-10T11:00:00Z,26.4679,-82.0631,6.33,1111122 
SCCF RECON,ioos:station:SCCF:11:1,2015-01-10T12:00:00Z,26.4679,-82.0631,7.23,1111122 
SCCF RECON,ioos:station:SCCF:11:1,2015-01-10T13:00:00Z,26.4679,-82.0631,6.15,1111122 
SCCF RECON,ioos:station:SCCF:11:1,2015-01-10T14:00:00Z,26.4679,-82.0631,5.83,1111122 
SCCF RECON,ioos:station:SCCF:11:1,2015-01-10T15:00:00Z,26.4679,-82.0631,5.79,1111122 
SCCF RECON,ioos:station:SCCF:11:1,2015-01-10T16:00:00Z,26.4679,-82.0631,6.37,1111122 
SCCF RECON,ioos:station:SCCF:11:1,2015-01-10T17:00:00Z,26.4679,-82.0631,6.73,1111122 
SCCF RECON,ioos:station:SCCF:11:1,2015-01-10T18:00:00Z,26.4679,-82.0631,6.82,1111122 
SCCF RECON,ioos:station:SCCF:11:1,2015-01-10T19:00:00Z,26.4679,-82.0631,6.78,1111122 
SCCF RECON,ioos:station:SCCF:11:1,2015-01-10T20:00:00Z,26.4679,-82.0631,6.35,1111122 
SCCF RECON,ioos:station:SCCF:11:1,2015-01-10T21:00:00Z,26.4679,-82.0631,6.41,1111122 
SCCF RECON,ioos:station:SCCF:11:1,2015-01-10T22:00:00Z,26.4679,-82.0631,6.37,1111122 
SCCF RECON,ioos:station:SCCF:11:1,2015-01-10T23:00:00Z,26.4679,-82.0631,6.27,1111122 
SCCF RECON,ioos:station:SCCF:11:1,2015-01-11T00:00:00Z,26.4679,-82.0631,6.1,1111122 
SCCF RECON,ioos:station:SCCF:11:1,2015-01-11T01:00:00Z,26.4679,-82.0631,5.6,1111122 
SCCF RECON,ioos:station:SCCF:11:1,2015-01-11T02:00:00Z,26.4679,-82.0631,6.01,1111122 
SCCF RECON,ioos:station:SCCF:11:1,2015-01-11T03:00:00Z,26.4679,-82.0631,5.42,1111122 
SCCF RECON,ioos:station:SCCF:11:1,2015-01-11T04:00:00Z,26.4679,-82.0631,5.51,1111122 
SCCF RECON,ioos:station:SCCF:11:1,2015-01-11T05:00:00Z,26.4679,-82.0631,4.37,1111122 
SCCF RECON,ioos:station:SCCF:11:1,2015-01-11T06:00:00Z,26.4679,-82.0631,4.75,1111122 
SCCF RECON,ioos:station:SCCF:11:1,2015-01-11T07:00:00Z,26.4679,-82.0631,4.21,1111122 
SCCF RECON,ioos:station:SCCF:11:1,2015-01-11T08:00:00Z,26.4679,-82.0631,4.08,1111122 
SCCF RECON,ioos:station:SCCF:11:1,2015-01-11T09:00:00Z,26.4679,-82.0631,4.65,1111122 
SCCF RECON,ioos:station:SCCF:11:1,2015-01-11T10:00:00Z,26.4679,-82.0631,5.58,1111122 
SCCF RECON,ioos:station:SCCF:11:1,2015-01-11T11:00:00Z,26.4679,-82.0631,5.04,1111122 
SCCF RECON,ioos:station:SCCF:11:1,2015-01-11T12:00:00Z,26.4679,-82.0631,4.63,1111122 
SCCF RECON,ioos:station:SCCF:11:1,2015-01-11T13:00:00Z,26.4679,-82.0631,5.34,1111122 
SCCF RECON,ioos:station:SCCF:11:1,2015-01-11T14:00:00Z,26.4679,-82.0631,4.55,1111122 
SCCF RECON,ioos:station:SCCF:11:1,2015-01-11T15:00:00Z,26.4679,-82.0631,4.34,1111122 
SCCF RECON,ioos:station:SCCF:11:1,2015-01-11T16:00:00Z,26.4679,-82.0631,3.79,1111122 
SCCF RECON,ioos:station:SCCF:11:1,2015-01-11T17:00:00Z,26.4679,-82.0631,4.21,1111122 
SCCF RECON,ioos:station:SCCF:11:1,2015-01-11T18:00:00Z,26.4679,-82.0631,4.19,1111122 
SCCF RECON,ioos:station:SCCF:11:1,2015-01-11T19:00:00Z,26.4679,-82.0631,4.23,1111122 
SCCF RECON,ioos:station:SCCF:11:1,2015-01-11T20:00:00Z,26.4679,-82.0631,4.43,1111122 
SCCF RECON,ioos:station:SCCF:11:1,2015-01-11T21:00:00Z,26.4679,-82.0631,4.82,1111122 
SCCF RECON,ioos:station:SCCF:11:1,2015-01-11T22:00:00Z,26.4679,-82.0631,5.22,1111122 
SCCF RECON,ioos:station:SCCF:11:1,2015-01-11T23:00:00Z,26.4679,-82.0631,6.32,1111122 
SCCF RECON,ioos:station:SCCF:11:1,2015-01-12T00:00:00Z,26.4679,-82.0631,5.73,1111122 
SCCF RECON,ioos:station:SCCF:11:1,2015-01-12T01:00:00Z,26.4679,-82.0631,4.87,1111122 
SCCF RECON,ioos:station:SCCF:11:1,2015-01-12T02:00:00Z,26.4679,-82.0631,4.36,1111122 
SCCF RECON,ioos:station:SCCF:11:1,2015-01-12T03:00:00Z,26.4679,-82.0631,4.45,1111122 
SCCF RECON,ioos:station:SCCF:11:1,2015-01-12T04:00:00Z,26.4679,-82.0631,4.32,1111122 
SCCF RECON,ioos:station:SCCF:11:1,2015-01-12T05:00:00Z,26.4679,-82.0631,4.83,1111122 
SCCF RECON,ioos:station:SCCF:11:1,2015-01-12T06:00:00Z,26.4679,-82.0631,5.46,1111122 
SCCF RECON,ioos:station:SCCF:11:1,2015-01-12T07:00:00Z,26.4679,-82.0631,4.5,1111122 
SCCF RECON,ioos:station:SCCF:11:1,2015-01-12T08:00:00Z,26.4679,-82.0631,4.48,1111122 
SCCF RECON,ioos:station:SCCF:11:1,2015-01-12T09:00:00Z,26.4679,-82.0631,4.56,1111122 
SCCF RECON,ioos:station:SCCF:11:1,2015-01-12T10:00:00Z,26.4679,-82.0631,3.87,1111122 
SCCF RECON,ioos:station:SCCF:11:1,2015-01-12T11:00:00Z,26.4679,-82.0631,4.44,1111122 
SCCF RECON,ioos:station:SCCF:11:1,2015-01-12T12:00:00Z,26.4679,-82.0631,5.42,1111122 
SCCF RECON,ioos:station:SCCF:11:1,2015-01-12T13:00:00Z,26.4679,-82.0631,4.22,1111122 